,,,PA_Meas_PMT16A,,PR_Meas_QMR101_102,,RH_Meas_QMH101,,SR_Meas_QMS101,,TA_Meas_QMH101,,GenWind,,GenWind,
date,time,status,PA,status,PR,status,RH,status,SR,status,TA,status,DirAvg,status,SpdAvg,
2011-05-08, 00:00:04,VALID,1005.57,VALID,0,INVALID,163.777,VALID,0,VALID,23.4894,VALID,34,VALID,0.21875,
2011-05-08, 00:01:04,VALID,1005.57,VALID,0,INVALID,163.8,VALID,0,VALID,23.4682,VALID,34,VALID,0.255859,
2011-05-08, 00:02:04,VALID,1005.51,VALID,0,INVALID,163.784,VALID,0,VALID,23.4877,VALID,34,VALID,0.155078,
2011-05-08, 00:03:04,VALID,1005.51,VALID,0,INVALID,163.792,VALID,0,VALID,23.47,VALID,34,VALID,0.326953,
2011-05-08, 00:04:04,VALID,1005.49,VALID,0,INVALID,163.777,VALID,0,VALID,23.4894,VALID,34,VALID,0.322266,
2011-05-08, 00:05:04,VALID,1005.49,VALID,0,INVALID,163.777,VALID,0,VALID,23.4487,VALID,34,VALID,0.283203,
2011-05-08, 00:06:04,VALID,1005.47,VALID,0,INVALID,163.815,VALID,0,VALID,23.4682,VALID,34,VALID,0.263672,
2011-05-08, 00:07:04,VALID,1005.45,VALID,0,INVALID,163.769,VALID,0,VALID,23.4894,VALID,34,VALID,0.225,
2011-05-08, 00:08:04,VALID,1005.45,VALID,0,INVALID,163.792,VALID,0,VALID,23.4894,VALID,34,VALID,0.341406,
2011-05-08, 00:09:04,VALID,1005.42,VALID,0,INVALID,163.784,VALID,0,VALID,23.4877,VALID,34,VALID,0.473437,
2011-05-08, 00:10:04,VALID,1005.41,VALID,0,INVALID,163.769,VALID,0,VALID,23.5284,VALID,34,VALID,0.547266,
2011-05-08, 00:11:04,VALID,1005.42,VALID,0,INVALID,163.777,VALID,0,VALID,23.5089,VALID,34,VALID,0.482031,
2011-05-08, 00:12:04,VALID,1005.41,VALID,0,INVALID,163.769,VALID,0,VALID,23.4894,VALID,34,VALID,0.510156,
2011-05-08, 00:13:04,VALID,1005.4,VALID,0,INVALID,163.8,VALID,0,VALID,23.4877,VALID,34,VALID,0.399609,
2011-05-08, 00:14:04,VALID,1005.42,VALID,0,INVALID,163.777,VALID,0,VALID,23.5284,VALID,34,VALID,0.383203,
2011-05-08, 00:15:04,VALID,1005.44,VALID,0,INVALID,163.8,VALID,0,VALID,23.5071,VALID,34,VALID,0.285156,
2011-05-08, 00:16:04,VALID,1005.41,VALID,0,INVALID,163.754,VALID,0,VALID,23.5284,VALID,34,VALID,0.316016,
2011-05-08, 00:17:04,VALID,1005.41,VALID,0,INVALID,163.777,VALID,0,VALID,23.5673,VALID,34,VALID,0.315625,
2011-05-08, 00:18:04,VALID,1005.39,VALID,0,INVALID,163.762,VALID,0,VALID,23.5655,VALID,34,VALID,0.29375,
2011-05-08, 00:19:04,VALID,1005.39,VALID,0,INVALID,163.792,VALID,0,VALID,23.585,VALID,34,VALID,0.385156,
2011-05-08, 00:20:04,VALID,1005.37,VALID,0,INVALID,163.792,VALID,0,VALID,23.6239,VALID,34,VALID,0.364453,
2011-05-08, 00:21:04,VALID,1005.35,VALID,0,INVALID,163.769,VALID,0,VALID,23.6239,VALID,34,VALID,0.268359,
2011-05-08, 00:22:04,VALID,1005.3,VALID,0,INVALID,163.762,VALID,0,VALID,23.6452,VALID,34,VALID,0,
2011-05-08, 00:23:04,VALID,1005.31,VALID,0,INVALID,163.777,VALID,0,VALID,23.6434,VALID,34,VALID,0,
2011-05-08, 00:24:04,VALID,1005.27,VALID,0,INVALID,163.762,VALID,0,VALID,23.6628,VALID,34,VALID,0,
2011-05-08, 00:25:04,VALID,1005.28,VALID,0,INVALID,163.777,VALID,0,VALID,23.6646,VALID,34,VALID,0,
2011-05-08, 00:26:04,VALID,1005.26,VALID,0,INVALID,163.777,VALID,0,VALID,23.6434,VALID,34,VALID,0,
2011-05-08, 00:27:05,VALID,1005.26,VALID,0,INVALID,163.769,VALID,0,VALID,23.6452,VALID,34,VALID,0,
2011-05-08, 00:28:05,VALID,1005.22,VALID,0,INVALID,163.769,VALID,0,VALID,23.6646,VALID,34,VALID,0,
2011-05-08, 00:29:05,VALID,1005.21,VALID,0,INVALID,163.739,VALID,0,VALID,23.6239,VALID,34,VALID,0,
2011-05-08, 00:30:05,VALID,1005.2,VALID,0,INVALID,163.784,VALID,0,VALID,23.6452,VALID,34,VALID,0,
2011-05-08, 00:31:05,VALID,1005.2,VALID,0,INVALID,163.746,VALID,0,VALID,23.585,VALID,34,VALID,0,
2011-05-08, 00:32:05,VALID,1005.16,VALID,0,INVALID,163.769,VALID,0,VALID,23.585,VALID,34,VALID,0,
2011-05-08, 00:33:05,VALID,1005.16,VALID,0,INVALID,163.762,VALID,0,VALID,23.5868,VALID,34,VALID,0,
2011-05-08, 00:34:05,VALID,1005.14,VALID,0,INVALID,163.784,VALID,0,VALID,23.5673,VALID,34,VALID,0,
2011-05-08, 00:35:05,VALID,1005.13,VALID,0,INVALID,163.792,VALID,0,VALID,23.5868,VALID,34,VALID,0,
2011-05-08, 00:36:05,VALID,1005.1,VALID,0,INVALID,163.784,VALID,0,VALID,23.5868,VALID,34,VALID,0,
2011-05-08, 00:37:05,VALID,1005.12,VALID,0,INVALID,163.769,VALID,0,VALID,23.585,VALID,34,VALID,0,
2011-05-08, 00:38:05,VALID,1005.09,VALID,0,INVALID,163.784,VALID,0,VALID,23.6257,VALID,34,VALID,0,
2011-05-08, 00:39:05,VALID,1005.08,VALID,0,INVALID,163.8,VALID,0,VALID,23.6469,VALID,20,VALID,0.626172,
2011-05-08, 00:40:05,VALID,1005.08,VALID,0,INVALID,163.754,VALID,0,VALID,23.6452,VALID,17,VALID,0.561328,
2011-05-08, 00:41:05,VALID,1005.1,VALID,0,INVALID,163.784,VALID,0,VALID,23.6452,VALID,17,VALID,0.461719,
2011-05-08, 00:42:05,VALID,1005.06,VALID,0,INVALID,163.769,VALID,0,VALID,23.6646,VALID,10,VALID,0.429297,
2011-05-08, 00:43:05,VALID,1005.06,VALID,0,INVALID,163.777,VALID,0,VALID,23.6841,VALID,10,VALID,0.233594,
2011-05-08, 00:44:05,VALID,1005.06,VALID,0,INVALID,163.769,VALID,0,VALID,23.6841,VALID,10,VALID,0.0105469,
2011-05-08, 00:45:05,VALID,1005.05,VALID,0,INVALID,163.8,VALID,0,VALID,23.7035,VALID,10,VALID,0.096875,
2011-05-08, 00:46:05,VALID,1005.07,VALID,0,INVALID,163.746,VALID,0,VALID,23.6823,VALID,5,VALID,0.287109,
2011-05-08, 00:47:05,VALID,1005.05,VALID,0,INVALID,163.769,VALID,0,VALID,23.723,VALID,4,VALID,0.422266,
2011-05-08, 00:48:05,VALID,1005.02,VALID,0,INVALID,163.746,VALID,0,VALID,23.7407,VALID,4,VALID,0.436719,
2011-05-08, 00:49:05,VALID,1005.02,VALID,0,INVALID,163.792,VALID,0,VALID,23.7601,VALID,4,VALID,0.373437,
2011-05-08, 00:50:05,VALID,1005.01,VALID,0,INVALID,163.762,VALID,0,VALID,23.7601,VALID,1,VALID,0.363281,
2011-05-08, 00:51:05,VALID,1005.04,VALID,0,INVALID,163.777,VALID,0,VALID,23.7425,VALID,1,VALID,0.302734,
2011-05-08, 00:52:05,VALID,1005.02,VALID,0,INVALID,163.762,VALID,0,VALID,23.7212,VALID,1,VALID,0.413672,
2011-05-08, 00:53:05,VALID,1005.01,VALID,0,INVALID,163.784,VALID,0,VALID,23.7212,VALID,1,VALID,0.301172,
2011-05-08, 00:54:05,VALID,1005.06,VALID,0,INVALID,163.769,VALID,0,VALID,23.7425,VALID,1,VALID,0.464453,
2011-05-08, 00:55:05,VALID,1005.02,VALID,0,INVALID,163.762,VALID,0,VALID,23.7425,VALID,1,VALID,0.406641,
2011-05-08, 00:56:05,VALID,1005.02,VALID,0,INVALID,163.792,VALID,0,VALID,23.7425,VALID,1,VALID,0.372266,
2011-05-08, 00:57:05,VALID,1005.02,VALID,0,INVALID,163.739,VALID,0,VALID,23.7212,VALID,1,VALID,0.374219,
2011-05-08, 00:58:05,VALID,1005,VALID,0,INVALID,163.777,VALID,0,VALID,23.7407,VALID,1,VALID,0.455469,
2011-05-08, 00:59:05,VALID,1004.96,VALID,0,INVALID,163.769,VALID,0,VALID,23.7407,VALID,1,VALID,0.415625,
2011-05-08, 01:00:05,VALID,1004.95,VALID,0,INVALID,163.746,VALID,0,VALID,23.7212,VALID,1,VALID,0.371484,
2011-05-08, 01:01:05,VALID,1004.94,VALID,0,INVALID,163.762,VALID,0,VALID,23.7407,VALID,1,VALID,0.342187,
2011-05-08, 01:02:05,VALID,1004.94,VALID,0,INVALID,163.746,VALID,0,VALID,23.7601,VALID,1,VALID,0.316016,
2011-05-08, 01:03:05,VALID,1004.91,VALID,0,INVALID,163.784,VALID,0,VALID,23.8009,VALID,1,VALID,0.277344,
2011-05-08, 01:04:05,VALID,1004.89,VALID,0,INVALID,163.739,VALID,0,VALID,23.7407,VALID,1,VALID,0.276172,
2011-05-08, 01:05:05,VALID,1004.88,VALID,0,INVALID,163.746,VALID,0,VALID,23.7619,VALID,1,VALID,0.305469,
2011-05-08, 01:06:05,VALID,1004.87,VALID,0,INVALID,163.769,VALID,0,VALID,23.7017,VALID,1,VALID,0.365234,
2011-05-08, 01:07:05,VALID,1004.82,VALID,0,INVALID,163.769,VALID,0,VALID,23.723,VALID,1,VALID,0.400391,
2011-05-08, 01:08:05,VALID,1004.82,VALID,0,INVALID,163.769,VALID,0,VALID,23.7017,VALID,1,VALID,0.456641,
2011-05-08, 01:09:05,VALID,1004.81,VALID,0,INVALID,163.762,VALID,0,VALID,23.7035,VALID,1,VALID,0.615625,
2011-05-08, 01:10:05,VALID,1004.82,VALID,0,INVALID,163.777,VALID,0,VALID,23.7035,VALID,1,VALID,0.629687,
2011-05-08, 01:11:05,VALID,1004.82,VALID,0,INVALID,163.762,VALID,0,VALID,23.7035,VALID,1,VALID,0.5375,
2011-05-08, 01:12:05,VALID,1004.78,VALID,0,INVALID,163.784,VALID,0,VALID,23.6628,VALID,1,VALID,0.438281,
2011-05-08, 01:13:05,VALID,1004.79,VALID,0,INVALID,163.777,VALID,0,VALID,23.6628,VALID,1,VALID,0.516016,
2011-05-08, 01:14:05,VALID,1004.74,VALID,0,INVALID,163.762,VALID,0,VALID,23.6646,VALID,1,VALID,0.542188,
2011-05-08, 01:15:05,VALID,1004.74,VALID,0,INVALID,163.754,VALID,0,VALID,23.6434,VALID,1,VALID,0.470703,
2011-05-08, 01:16:05,VALID,1004.74,VALID,0,INVALID,163.807,VALID,0,VALID,23.6239,VALID,1,VALID,0.495703,
2011-05-08, 01:17:05,VALID,1004.72,VALID,0,INVALID,163.777,VALID,0,VALID,23.6257,VALID,1,VALID,0.421875,
2011-05-08, 01:18:05,VALID,1004.72,VALID,0,INVALID,163.769,VALID,0,VALID,23.6452,VALID,1,VALID,0.388281,
2011-05-08, 01:19:05,VALID,1004.72,VALID,0,INVALID,163.807,VALID,0,VALID,23.6257,VALID,1,VALID,0.399609,
2011-05-08, 01:20:05,VALID,1004.71,VALID,0,INVALID,163.8,VALID,0,VALID,23.6257,VALID,1,VALID,0.346094,
2011-05-08, 01:21:05,VALID,1004.69,VALID,0,INVALID,163.784,VALID,0,VALID,23.585,VALID,1,VALID,0.344141,
2011-05-08, 01:22:05,VALID,1004.67,VALID,0,INVALID,163.784,VALID,0,VALID,23.585,VALID,1,VALID,0.208984,
2011-05-08, 01:23:05,VALID,1004.69,VALID,0,INVALID,163.769,VALID,0,VALID,23.5868,VALID,1,VALID,0.336328,
2011-05-08, 01:24:05,VALID,1004.66,VALID,0,INVALID,163.8,VALID,0,VALID,23.5655,VALID,1,VALID,0.303516,
2011-05-08, 01:25:05,VALID,1004.66,VALID,0,INVALID,163.777,VALID,0,VALID,23.5673,VALID,1,VALID,0.452734,
2011-05-08, 01:26:05,VALID,1004.65,VALID,0,INVALID,163.769,VALID,0,VALID,23.5868,VALID,1,VALID,0.495703,
2011-05-08, 01:27:05,VALID,1004.63,VALID,0,INVALID,163.792,VALID,0,VALID,23.546,VALID,1,VALID,0.497266,
2011-05-08, 01:28:05,VALID,1004.65,VALID,0,INVALID,163.777,VALID,0,VALID,23.546,VALID,1,VALID,0.545703,
2011-05-08, 01:29:05,VALID,1004.63,VALID,0,INVALID,163.784,VALID,0,VALID,23.5478,VALID,1,VALID,0.544922,
2011-05-08, 01:30:05,VALID,1004.65,VALID,0,INVALID,163.777,VALID,0,VALID,23.5868,VALID,1,VALID,0.415234,
2011-05-08, 01:31:05,VALID,1004.66,VALID,0,INVALID,163.769,VALID,0,VALID,23.5655,VALID,1,VALID,0.323047,
2011-05-08, 01:32:05,VALID,1004.68,VALID,0,INVALID,163.784,VALID,0,VALID,23.5868,VALID,1,VALID,0.342187,
2011-05-08, 01:33:05,VALID,1004.68,VALID,0,INVALID,163.777,VALID,0,VALID,23.5868,VALID,1,VALID,0.362891,
2011-05-08, 01:34:05,VALID,1004.68,VALID,0,INVALID,163.792,VALID,0,VALID,23.6062,VALID,1,VALID,0.395312,
2011-05-08, 01:35:05,VALID,1004.66,VALID,0,INVALID,163.777,VALID,0,VALID,23.5655,VALID,1,VALID,0.310156,
2011-05-08, 01:36:05,VALID,1004.65,VALID,0,INVALID,163.762,VALID,0,VALID,23.5673,VALID,1,VALID,0.214844,
2011-05-08, 01:37:05,VALID,1004.66,VALID,0,INVALID,163.777,VALID,0,VALID,23.546,VALID,1,VALID,0.257813,
2011-05-08, 01:38:05,VALID,1004.65,VALID,0,INVALID,163.8,VALID,0,VALID,23.5655,VALID,1,VALID,0.294922,
2011-05-08, 01:39:05,VALID,1004.65,VALID,0,INVALID,163.777,VALID,0,VALID,23.5655,VALID,1,VALID,0.345703,
2011-05-08, 01:40:05,VALID,1004.65,VALID,0,INVALID,163.769,VALID,0,VALID,23.5868,VALID,1,VALID,0.284375,
2011-05-08, 01:41:05,VALID,1004.64,VALID,0,INVALID,163.784,VALID,0,VALID,23.5673,VALID,1,VALID,0.282031,
2011-05-08, 01:42:05,VALID,1004.59,VALID,0,INVALID,163.777,VALID,0,VALID,23.5673,VALID,1,VALID,0.211719,
2011-05-08, 01:43:05,VALID,1004.57,VALID,0,INVALID,163.807,VALID,0,VALID,23.5266,VALID,1,VALID,0.176563,
2011-05-08, 01:44:05,VALID,1004.55,VALID,0,INVALID,163.754,VALID,0,VALID,23.5266,VALID,1,VALID,0.292578,
2011-05-08, 01:45:05,VALID,1004.55,VALID,0,INVALID,163.769,VALID,0,VALID,23.5302,VALID,1,VALID,0.327734,
2011-05-08, 01:46:05,VALID,1004.54,VALID,0,INVALID,163.784,VALID,0,VALID,23.5302,VALID,1,VALID,0.296484,
2011-05-08, 01:47:05,VALID,1004.51,VALID,0,INVALID,163.8,VALID,0,VALID,23.5089,VALID,1,VALID,0.404687,
2011-05-08, 01:48:05,VALID,1004.53,VALID,0,INVALID,163.777,VALID,0,VALID,23.5089,VALID,1,VALID,0.287891,
2011-05-08, 01:49:05,VALID,1004.49,VALID,0,INVALID,163.777,VALID,0,VALID,23.4894,VALID,1,VALID,0.346484,
2011-05-08, 01:50:05,VALID,1004.51,VALID,0,INVALID,163.769,VALID,0,VALID,23.4894,VALID,1,VALID,0.342187,
2011-05-08, 01:51:05,VALID,1004.5,VALID,0,INVALID,163.784,VALID,0,VALID,23.47,VALID,1,VALID,0.410547,
2011-05-08, 01:52:05,VALID,1004.5,VALID,0,INVALID,163.762,VALID,0,VALID,23.4505,VALID,1,VALID,0.485156,
2011-05-08, 01:53:05,VALID,1004.5,VALID,0,INVALID,163.784,VALID,0,VALID,23.4293,VALID,1,VALID,0.536719,
2011-05-08, 01:54:05,VALID,1004.48,VALID,0,INVALID,163.8,VALID,0,VALID,23.4505,VALID,1,VALID,0.414063,
2011-05-08, 01:55:05,VALID,1004.44,VALID,0,INVALID,163.792,VALID,0,VALID,23.4098,VALID,1,VALID,0.307422,
2011-05-08, 01:56:05,VALID,1004.42,VALID,0,INVALID,163.792,VALID,0,VALID,23.4311,VALID,1,VALID,0.180859,
2011-05-08, 01:57:05,VALID,1004.44,VALID,0,INVALID,163.784,VALID,0,VALID,23.4311,VALID,1,VALID,0.353906,
2011-05-08, 01:58:05,VALID,1004.45,VALID,0,INVALID,163.784,VALID,0,VALID,23.3904,VALID,1,VALID,0.393359,
2011-05-08, 01:59:05,VALID,1004.43,VALID,0,INVALID,163.792,VALID,0,VALID,23.4311,VALID,1,VALID,0.423047,
2011-05-08, 02:00:05,VALID,1004.43,VALID,0,INVALID,163.777,VALID,0,VALID,23.4116,VALID,1,VALID,0.36875,
2011-05-08, 02:01:05,VALID,1004.41,VALID,0,INVALID,163.807,VALID,0,VALID,23.3921,VALID,1,VALID,0.358203,
2011-05-08, 02:02:05,VALID,1004.4,VALID,0,INVALID,163.8,VALID,0,VALID,23.3921,VALID,1,VALID,0.409375,
2011-05-08, 02:03:05,VALID,1004.36,VALID,0,INVALID,163.769,VALID,0,VALID,23.3904,VALID,1,VALID,0.410547,
2011-05-08, 02:04:05,VALID,1004.33,VALID,0,INVALID,163.8,VALID,0,VALID,23.3904,VALID,1,VALID,0.248047,
2011-05-08, 02:05:05,VALID,1004.37,VALID,0,INVALID,163.807,VALID,0,VALID,23.3904,VALID,1,VALID,0.181641,
2011-05-08, 02:06:05,VALID,1004.32,VALID,0,INVALID,163.777,VALID,0,VALID,23.3727,VALID,1,VALID,0.153516,
2011-05-08, 02:07:05,VALID,1004.35,VALID,0,INVALID,163.777,VALID,0,VALID,23.332,VALID,1,VALID,0,
2011-05-08, 02:08:05,VALID,1004.3,VALID,0,INVALID,163.777,VALID,0,VALID,23.3337,VALID,1,VALID,0.0753906,
2011-05-08, 02:09:05,VALID,1004.32,VALID,0,INVALID,163.769,VALID,0,VALID,23.2931,VALID,1,VALID,0.269141,
2011-05-08, 02:10:05,VALID,1004.31,VALID,0,INVALID,163.8,VALID,0,VALID,23.2736,VALID,1,VALID,0.294922,
2011-05-08, 02:11:05,VALID,1004.3,VALID,0,INVALID,163.792,VALID,0,VALID,23.2736,VALID,1,VALID,0.237109,
2011-05-08, 02:12:05,VALID,1004.27,VALID,0,INVALID,163.792,VALID,0,VALID,23.3143,VALID,1,VALID,0.264844,
2011-05-08, 02:13:05,VALID,1004.26,VALID,0,INVALID,163.769,VALID,0,VALID,23.4134,VALID,1,VALID,0.134375,
2011-05-08, 02:14:05,VALID,1004.25,VALID,0,INVALID,163.815,VALID,0,VALID,23.4487,VALID,1,VALID,0.167969,
2011-05-08, 02:15:05,VALID,1004.28,VALID,0,INVALID,163.792,VALID,0,VALID,23.47,VALID,1,VALID,0.102344,
2011-05-08, 02:16:05,VALID,1004.26,VALID,0,INVALID,163.777,VALID,0,VALID,23.47,VALID,1,VALID,0.363281,
2011-05-08, 02:17:05,VALID,1004.24,VALID,0,INVALID,163.792,VALID,0,VALID,23.4293,VALID,1,VALID,0.236719,
2011-05-08, 02:18:05,VALID,1004.23,VALID,0,INVALID,163.792,VALID,0,VALID,23.4311,VALID,1,VALID,0.295312,
2011-05-08, 02:19:05,VALID,1004.22,VALID,0,INVALID,163.8,VALID,0,VALID,23.4116,VALID,1,VALID,0,
2011-05-08, 02:20:05,VALID,1004.21,VALID,0,INVALID,163.762,VALID,0,VALID,23.3727,VALID,1,VALID,0,
2011-05-08, 02:21:05,VALID,1004.17,VALID,0,INVALID,163.8,VALID,0,VALID,23.3532,VALID,1,VALID,0,
2011-05-08, 02:22:05,VALID,1004.18,VALID,0,INVALID,163.8,VALID,0,VALID,23.3143,VALID,1,VALID,0.154687,
2011-05-08, 02:23:05,VALID,1004.17,VALID,0,INVALID,163.762,VALID,0,VALID,23.3337,VALID,1,VALID,0.125,
2011-05-08, 02:24:05,VALID,1004.14,VALID,0,INVALID,163.807,VALID,0,VALID,23.332,VALID,1,VALID,0,
2011-05-08, 02:25:05,VALID,1004.15,VALID,0,INVALID,163.807,VALID,0,VALID,23.3921,VALID,1,VALID,0.211328,
2011-05-08, 02:26:05,VALID,1004.15,VALID,0,INVALID,163.777,VALID,0,VALID,23.3921,VALID,1,VALID,0.317578,
2011-05-08, 02:27:05,VALID,1004.15,VALID,0,INVALID,163.8,VALID,0,VALID,23.3727,VALID,1,VALID,0.155469,
2011-05-08, 02:28:05,VALID,1004.11,VALID,0,INVALID,163.784,VALID,0,VALID,23.3921,VALID,1,VALID,0.0695312,
2011-05-08, 02:29:05,VALID,1004.08,VALID,0,INVALID,163.792,VALID,0.100563,VALID,23.3709,VALID,1,VALID,0.141797,
2011-05-08, 02:30:05,VALID,1004.11,VALID,0,INVALID,163.769,VALID,0,VALID,23.3107,VALID,1,VALID,0,
2011-05-08, 02:31:05,VALID,1004.08,VALID,0,INVALID,163.792,VALID,0,VALID,23.3125,VALID,1,VALID,0,
2011-05-08, 02:32:05,VALID,1004.09,VALID,0,INVALID,163.769,VALID,0,VALID,23.332,VALID,1,VALID,0,
2011-05-08, 02:33:05,VALID,1004.09,VALID,0,INVALID,163.784,VALID,0,VALID,23.3514,VALID,1,VALID,0.214453,
2011-05-08, 02:34:05,VALID,1004.09,VALID,0,INVALID,163.784,VALID,0.100563,VALID,23.3514,VALID,1,VALID,0.2375,
2011-05-08, 02:35:05,VALID,1004.07,VALID,0,INVALID,163.792,VALID,0,VALID,23.3904,VALID,1,VALID,0.059375,
2011-05-08, 02:36:05,VALID,1004.08,VALID,0,INVALID,163.784,VALID,0,VALID,23.3904,VALID,1,VALID,0,
2011-05-08, 02:37:05,VALID,1004.1,VALID,0,INVALID,163.792,VALID,0.100563,VALID,23.3302,VALID,1,VALID,0,
2011-05-08, 02:38:05,VALID,1004.06,VALID,0,INVALID,163.784,VALID,0,VALID,23.332,VALID,1,VALID,0,
2011-05-08, 02:39:05,VALID,1004.09,VALID,0,INVALID,163.807,VALID,0,VALID,23.3709,VALID,1,VALID,0.138672,
2011-05-08, 02:40:05,VALID,1004.08,VALID,0,INVALID,163.777,VALID,0,VALID,23.3904,VALID,1,VALID,0,
2011-05-08, 02:41:05,VALID,1004.09,VALID,0,INVALID,163.784,VALID,0,VALID,23.3904,VALID,1,VALID,0,
2011-05-08, 02:42:05,VALID,1004.08,VALID,0,INVALID,163.769,VALID,0.100563,VALID,23.3904,VALID,1,VALID,0.00273437,
2011-05-08, 02:43:05,VALID,1004.08,VALID,0,INVALID,163.784,VALID,0.100563,VALID,23.3709,VALID,1,VALID,0,
2011-05-08, 02:44:05,VALID,1004.06,VALID,0,INVALID,163.792,VALID,0,VALID,23.3727,VALID,1,VALID,0,
2011-05-08, 02:45:05,VALID,1004.05,VALID,0,INVALID,163.784,VALID,0,VALID,23.3727,VALID,1,VALID,0,
2011-05-08, 02:46:05,VALID,1004.04,VALID,0,INVALID,163.784,VALID,0,VALID,23.3727,VALID,1,VALID,0.230469,
2011-05-08, 02:47:05,VALID,1004.05,VALID,0,INVALID,163.8,VALID,0,VALID,23.4116,VALID,1,VALID,0.278906,
2011-05-08, 02:48:05,VALID,1004.06,VALID,0,INVALID,163.762,VALID,0,VALID,23.4116,VALID,1,VALID,0.214062,
2011-05-08, 02:49:05,VALID,1004.05,VALID,0,INVALID,163.792,VALID,0,VALID,23.4505,VALID,1,VALID,0.398828,
2011-05-08, 02:50:05,VALID,1004.05,VALID,0,INVALID,163.777,VALID,0,VALID,23.4311,VALID,1,VALID,0.214062,
2011-05-08, 02:51:05,VALID,1004.02,VALID,0,INVALID,163.769,VALID,0,VALID,23.3921,VALID,1,VALID,0.399219,
2011-05-08, 02:52:05,VALID,1004.02,VALID,0,INVALID,163.777,VALID,0,VALID,23.332,VALID,1,VALID,0.378516,
2011-05-08, 02:53:05,VALID,1004.03,VALID,0,INVALID,163.784,VALID,0,VALID,23.4311,VALID,1,VALID,0,
2011-05-08, 02:54:05,VALID,1004.01,VALID,0,INVALID,163.784,VALID,0,VALID,23.4116,VALID,1,VALID,0.205078,
2011-05-08, 02:55:05,VALID,1003.99,VALID,0,INVALID,163.754,VALID,0,VALID,23.4116,VALID,1,VALID,0.220703,
2011-05-08, 02:56:05,VALID,1003.99,VALID,0,INVALID,163.777,VALID,0,VALID,23.4311,VALID,1,VALID,0.251953,
2011-05-08, 02:57:05,VALID,1004,VALID,0,INVALID,163.769,VALID,0,VALID,23.47,VALID,1,VALID,0.316797,
2011-05-08, 02:58:05,VALID,1003.99,VALID,0,INVALID,163.762,VALID,0,VALID,23.4894,VALID,1,VALID,0.351172,
2011-05-08, 02:59:04,VALID,1003.99,VALID,0,INVALID,163.784,VALID,0.100563,VALID,23.5071,VALID,1,VALID,0.090625,
2011-05-08, 03:00:04,VALID,1004,VALID,0,INVALID,163.777,VALID,0,VALID,23.5266,VALID,1,VALID,0.383203,
2011-05-08, 03:01:04,VALID,1004.04,VALID,0,INVALID,163.769,VALID,0,VALID,23.5655,VALID,1,VALID,0.353516,
2011-05-08, 03:02:04,VALID,1004.03,VALID,0,INVALID,163.769,VALID,0,VALID,23.546,VALID,1,VALID,0.241016,
2011-05-08, 03:03:04,VALID,1004.01,VALID,0,INVALID,163.784,VALID,0,VALID,23.546,VALID,1,VALID,0.321094,
2011-05-08, 03:04:04,VALID,1004.04,VALID,0,INVALID,163.777,VALID,0,VALID,23.5478,VALID,1,VALID,0.200391,
2011-05-08, 03:05:04,VALID,1004.01,VALID,0,INVALID,163.777,VALID,0,VALID,23.5478,VALID,1,VALID,0.283203,
2011-05-08, 03:06:04,VALID,1004,VALID,0,INVALID,163.792,VALID,0,VALID,23.5266,VALID,1,VALID,0.267188,
2011-05-08, 03:07:04,VALID,1004.02,VALID,0,INVALID,163.807,VALID,0,VALID,23.5478,VALID,1,VALID,0.278516,
2011-05-08, 03:08:04,VALID,1004.01,VALID,0,INVALID,163.792,VALID,0,VALID,23.5655,VALID,1,VALID,0.14375,
2011-05-08, 03:09:04,VALID,1004.02,VALID,0,INVALID,163.792,VALID,0,VALID,23.546,VALID,1,VALID,0.0570313,
2011-05-08, 03:10:04,VALID,1004,VALID,0,INVALID,163.777,VALID,0,VALID,23.5266,VALID,1,VALID,0.348828,
2011-05-08, 03:11:04,VALID,1003.99,VALID,0,INVALID,163.784,VALID,0,VALID,23.5071,VALID,1,VALID,0.383594,
2011-05-08, 03:12:04,VALID,1003.99,VALID,0,INVALID,163.777,VALID,0,VALID,23.4877,VALID,1,VALID,0.307031,
2011-05-08, 03:13:04,VALID,1004,VALID,0,INVALID,163.792,VALID,0,VALID,23.5071,VALID,1,VALID,0.175391,
2011-05-08, 03:14:04,VALID,1003.99,VALID,0,INVALID,163.784,VALID,0,VALID,23.5089,VALID,1,VALID,0,
2011-05-08, 03:15:04,VALID,1003.98,VALID,0,INVALID,163.777,VALID,0,VALID,23.5284,VALID,1,VALID,0,
2011-05-08, 03:16:04,VALID,1003.99,VALID,0,INVALID,163.777,VALID,0,VALID,23.5673,VALID,1,VALID,0.216797,
2011-05-08, 03:17:04,VALID,1004.01,VALID,0,INVALID,163.762,VALID,0,VALID,23.6257,VALID,1,VALID,0.466406,
2011-05-08, 03:18:04,VALID,1003.98,VALID,0,INVALID,163.746,VALID,0,VALID,23.6257,VALID,1,VALID,0.551172,
2011-05-08, 03:19:04,VALID,1003.97,VALID,0,INVALID,163.754,VALID,0,VALID,23.6062,VALID,1,VALID,0.373437,
2011-05-08, 03:20:04,VALID,1003.96,VALID,0,INVALID,163.777,VALID,0,VALID,23.6062,VALID,1,VALID,0.326172,
2011-05-08, 03:21:04,VALID,1003.95,VALID,0,INVALID,163.777,VALID,0,VALID,23.6044,VALID,1,VALID,0.433203,
2011-05-08, 03:22:04,VALID,1003.93,VALID,0,INVALID,163.746,VALID,0,VALID,23.6646,VALID,1,VALID,0.249219,
2011-05-08, 03:23:04,VALID,1003.91,VALID,0,INVALID,163.746,VALID,0,VALID,23.723,VALID,1,VALID,0.199219,
2011-05-08, 03:24:04,VALID,1003.92,VALID,0,INVALID,163.754,VALID,0,VALID,23.7017,VALID,1,VALID,0.422656,
2011-05-08, 03:25:04,VALID,1003.96,VALID,0,INVALID,163.762,VALID,0,VALID,23.6646,VALID,1,VALID,0.524609,
2011-05-08, 03:26:04,VALID,1003.93,VALID,0,INVALID,163.792,VALID,0,VALID,23.6452,VALID,1,VALID,0.609766,
2011-05-08, 03:27:04,VALID,1003.95,VALID,0,INVALID,163.754,VALID,0,VALID,23.6646,VALID,1,VALID,0.710156,
2011-05-08, 03:28:04,VALID,1003.95,VALID,0,INVALID,163.777,VALID,0,VALID,23.6646,VALID,1,VALID,0.685156,
2011-05-08, 03:29:04,VALID,1003.97,VALID,0,INVALID,163.746,VALID,0,VALID,23.6452,VALID,1,VALID,0.456641,
2011-05-08, 03:30:04,VALID,1003.96,VALID,0,INVALID,163.746,VALID,0,VALID,23.6664,VALID,1,VALID,0.427344,
2011-05-08, 03:31:04,VALID,1003.96,VALID,0,INVALID,163.769,VALID,0,VALID,23.6044,VALID,1,VALID,0.4125,
2011-05-08, 03:32:04,VALID,1003.95,VALID,0,INVALID,163.762,VALID,0,VALID,23.6452,VALID,1,VALID,0.436719,
2011-05-08, 03:33:04,VALID,1003.95,VALID,0,INVALID,163.762,VALID,0,VALID,23.6452,VALID,1,VALID,0.394922,
2011-05-08, 03:34:04,VALID,1003.94,VALID,0,INVALID,163.769,VALID,0,VALID,23.6452,VALID,1,VALID,0.228125,
2011-05-08, 03:35:04,VALID,1003.95,VALID,0,INVALID,163.777,VALID,0,VALID,23.6452,VALID,1,VALID,0.0671875,
2011-05-08, 03:36:04,VALID,1004,VALID,0,INVALID,163.762,VALID,0,VALID,23.6452,VALID,1,VALID,0.171484,
2011-05-08, 03:37:04,VALID,1004,VALID,0,INVALID,163.792,VALID,0,VALID,23.6452,VALID,1,VALID,0.0824219,
2011-05-08, 03:38:04,VALID,1004.01,VALID,0,INVALID,163.769,VALID,0,VALID,23.608,VALID,1,VALID,0,
2011-05-08, 03:39:04,VALID,1004,VALID,0,INVALID,163.777,VALID,0,VALID,23.5868,VALID,1,VALID,0,
2011-05-08, 03:40:04,VALID,1004.03,VALID,0,INVALID,163.769,VALID,0,VALID,23.6062,VALID,1,VALID,0.157422,
2011-05-08, 03:41:04,VALID,1004.02,VALID,0,INVALID,163.746,VALID,0,VALID,23.6257,VALID,1,VALID,0.476172,
2011-05-08, 03:42:04,VALID,1004.02,VALID,0,INVALID,163.784,VALID,0,VALID,23.6062,VALID,1,VALID,0.521875,
2011-05-08, 03:43:04,VALID,1004,VALID,0,INVALID,163.754,VALID,0,VALID,23.5868,VALID,1,VALID,0.425781,
2011-05-08, 03:44:04,VALID,1004,VALID,0,INVALID,163.762,VALID,0,VALID,23.6062,VALID,1,VALID,0.475,
2011-05-08, 03:45:04,VALID,1003.95,VALID,0,INVALID,163.807,VALID,0,VALID,23.6257,VALID,1,VALID,0.447266,
2011-05-08, 03:46:04,VALID,1003.92,VALID,0,INVALID,163.739,VALID,0,VALID,23.5655,VALID,1,VALID,0.334375,